Zurück zum Katalog

THOR ABLESTAR DEB

AktivLEO
NORAD 405·DEBRIS·🇺🇸 United States

Gestartet Jun 29, 1961 von Cape Canaveral Space Force Station

Loading…

Nächste Überflüge (nächste 24 Stunden)

TLE

AktuellSource: Space-Track

Epoche: Sep 13, 2026, 14:47 UTC

1   405U 61015EE  26256.61643698  .00000173  00000-0  28620-3 0  9998
2   405  66.8943 316.2342 0079996 122.0906 313.9995 13.66729551244237

Verfolge THOR ABLESTAR DEB in Echtzeit mit AllMySat

Download on the App Store